Home   Weather   Grand Prairie   Past weeks

Flag for USA Past Weather in Grand Prairie, Texas, USA — Yesterday and Last 2 Weeks

Now
46 °F

Overcast.


Feels Like: 44 °F
Forecast: 46 / 50 °F
Wind: 5 mph from Northeast

Location: Grand Prairie Municipal Airport

Current Time: Dec 5, 2016 at 8:45:44 am

Latest Report: Dec 5, 2016 at 7:50 am


Visibility: 10 mi

Pressure: 29.95 "Hg

Humidity: 82%

Dew Point: 41 °F

Location of Grand PrairieLocation

Past Weather in Grand Prairie — Graph

°F

Grand Prairie Temperature Yesterday

Maximum temperature yesterday: 52 °F (at 1:50 pm)
Minimum temperature yesterday: 46 °F (at 7:50 am)
Average temperature yesterday: 49 °F

High & Low Weather Summary for the Past Weeks

 TemperatureHumidityPressure
High72 °F (Nov 21, 2:50 pm)100% (Nov 22, 7:55 pm)30.45 "Hg (Nov 22, 7:55 pm)
Low38 °F (Nov 20, 5:35 am)17% (Nov 28, 3:50 pm)29.47 "Hg (Nov 28, 2:50 pm)
Average56 °F64%30.04 "Hg
* Reported Nov 20 5:15 am — Dec 5 5:35 am, Grand Prairie, Weather by CustomWeather, © 2016

Note: Actual official high and low records may vary slightly from our data, if they occured in-between our weather recording intervals... More about our weather records

Advertising

Grand Prairie Weather History for the Previous 24 Hours

Scroll right to see more
 ConditionsComfort  
Time TempWeatherWind HumidityBarometerVisibility
5:35 am
Mon, Dec 5
46 °FOvercast.7 mph83%29.93 "Hg10 mi
5:15 am47 °FOvercast.6 mph82%29.93 "Hg10 mi
4:55 am47 °FOvercast.7 mph81%29.94 "Hg10 mi
4:15 am47 °FOvercast.8 mph81%29.96 "Hg10 mi
3:55 am47 °FOvercast.8 mph81%29.97 "Hg10 mi
3:35 am47 °FOvercast.6 mph81%29.99 "Hg10 mi
3:15 am48 °FOvercast.No wind79%30.03 "Hg10 mi
2:55 am47 °FOvercast.No wind81%30.03 "Hg10 mi
2:15 am47 °FPassing clouds.3 mph79%30.03 "Hg10 mi
1:55 am47 °FClear.No wind80%30.03 "Hg10 mi
1:35 am47 °FClear.No wind79%30.03 "Hg10 mi
1:15 am47 °FPassing clouds.No wind79%30.04 "Hg10 mi
12:55 am48 °FPassing clouds.No wind78%30.05 "Hg10 mi
12:15 am49 °FPassing clouds.No wind76%30.08 "Hg10 mi
11:55 pm
Sun, Dec 4
49 °FPassing clouds.No wind76%30.08 "Hg10 mi
11:15 pm49 °FPassing clouds.No wind76%30.09 "Hg10 mi
10:55 pm49 °FOvercast.No wind75%30.08 "Hg10 mi
10:15 pm49 °FPassing clouds.No wind76%30.08 "Hg10 mi
9:55 pm48 °FPassing clouds.5 mph77%30.07 "Hg10 mi
9:35 pm49 °FOvercast.3 mph76%30.07 "Hg10 mi
9:15 pm49 °FOvercast.6 mph74%30.05 "Hg10 mi
8:55 pm49 °FOvercast.6 mph73%30.06 "Hg10 mi
8:35 pm49 °FOvercast.8 mph73%30.04 "Hg10 mi
8:15 pm49 °FPassing clouds.15 mph73%30.03 "Hg10 mi
7:55 pm50 °FPassing clouds.12 mph74%30.06 "Hg10 mi
7:15 pm50 °FOvercast.6 mph75%30.08 "Hg10 mi
4:50 pm52 °FOvercast.12 mph72%30.03 "Hg10 mi
3:50 pm52 °FOvercast.12 mph72%30.03 "Hg10 mi
2:50 pm52 °FOvercast.5 mph72%30.05 "Hg10 mi
1:50 pm52 °FOvercast.8 mph72%30.07 "Hg10 mi
12:50 pm50 °FMostly cloudy.8 mph82%30.08 "Hg10 mi
11:50 am50 °FMostly cloudy.10 mph82%30.10 "Hg10 mi
10:50 am48 °FMostly cloudy.9 mph87%30.09 "Hg10 mi
9:50 am48 °FMore clouds than sun.3 mph94%30.07 "Hg10 mi
8:50 am48 °FBroken clouds.3 mph100%30.06 "Hg10 mi
Weather by CustomWeather, © 2016

See weather overviewHow to use our weather pages